Overview Statistics Trail Chart Weather Telemetry Raw packets
 

This is the latest recevied weather packets stored in our database for station/object EA1HTW-13. If no packets are shown the sender has not sent any weather packets the latest 10 day(s).

<< 1 2 3 4 5 >>
Time Temp. Humidity Pressure Rain* Wind** Luminosity Snow
1777987394 18.89° C 56% 1010.1 hPa 0 mm - - -
1777986854 18.33° C 59% 1010 hPa 0 mm - - -
1777986314 17.78° C 60% 1010 hPa 0 mm - - -
1777985775 17.78° C 62% 1010 hPa 0 mm - - -
1777985235 17.78° C 62% 1009.7 hPa 0 mm - - -
1777984707 17.78° C 61% 1009.9 hPa 0 mm - - -
1777984155 17.78° C 63% 1009.8 hPa 0 mm - - -
1777983614 16.67° C 67% 1009.9 hPa 0 mm - - -
1777983075 17.22° C 66% 1010.1 hPa 0 mm - - -
1777982534 16.67° C 64% 1010.2 hPa 0 mm - - -
1777981995 16.67° C 64% 1010.1 hPa 0 mm - - -
1777981454 16.67° C 64% 1010.1 hPa 0 mm - - -
1777980915 16.67° C 65% 1010.1 hPa 0 mm - - -
1777980375 16.11° C 65% 1010.2 hPa 0 mm - - -
1777979835 16.11° C 66% 1010 hPa 0 mm - - -
1777979294 16.11° C 64% 1010 hPa 0 mm - - -
1777978755 16.67° C 64% 1010.2 hPa 0 mm - - -
1777978214 16.67° C 65% 1010.1 hPa 0 mm - - -
1777977675 16.67° C 66% 1010.2 hPa 0 mm - - -
1777977134 16.11° C 65% 1010.2 hPa 0 mm - - -
1777976595 16.11° C 66% 1010.1 hPa 0 mm - - -
1777976055 16.11° C 64% 1010.1 hPa 0 mm - - -
1777975514 16.11° C 65% 1010.1 hPa 0 mm - - -
1777974974 16.11° C 65% 1010.1 hPa 0 mm - - -
1777974434 16.11° C 68% 1010 hPa 0 mm - - -

* Rain latest hour (hover to see other rain measurements)
** Current wind speed in m/s (hover to see current wind gust speed)